SCP
0 0 0 0 0 0 0 0 0 0 0 0 0 0 0 0 0 0 0 0 0 0 0 0 0 0 0 0 0 0 0 0 0 0 0 0 0 0 0 0 0 0 0
0 0 0 0 0 0 0 0 0 0 0 0 0 0 0 0 0 0 0 0 0 0 0 0 0 0 0 0 0 0 0 0 0 0 0 0 0 0 0 0 0 0 0
0 0 0 0 0 0 0 0 0 0 0 0 0 0 0 0 0 0 0 0 0 0 0 0 0 0 0 0 0 0 0 0 0 0 0 0 0 0 0 0 0 0 0
0 0 0 0 0 0 0 0 0 0 0 0 0 0 0 0 0 0 0 0 0 0 0 0 0 0 0 0 0 0 0 0 0 0 0 0 0 0 0 0 0 0 0
0 0 0 0 0 0 0 0 0 0 0 0 0 0 0 0 0 0 0 0 0 0 0 0 0 0 0 0 0 0 0 0 0 0 0 0 0 0 0 0 0 0 0
0 0 0 0 0 0 0 0 0 0 0 0 0 0 0 0 0 0 0 0 0 0 0 0 0 0 0 0 0 0 0 0 0 0 0 0 0 0 0 0 0 0 0
0 0 0 0 0 0 0 0 0 0 0 0 0 0 0 0 0 0 0 0 0 0 0 0 0 0 0 0 0 0 0 0 0 0 0 0 0 0 0 0 0 0 0
0 0 0 0 0 0 0 0 0 0 0 0 0 0 0 0 0 0 0 0 0 0 0 0 0 0 0 0 0 0 0 0 0 0 0 0 0 0 0 0 0 0 0
0 0 0 0 0 0 0 0 0 0 0 0 0 0 0 0 0 0 0 0 0 0 0 0 0 0 0 0 0 0 0 0 0 0 0 0 0 0 0 0 0 0 0
0 0 0 0 0 0 0 0 0 0 0 0 0 0 0 0 0 0 0 0 0 0 0 0 0 0 0 0 0 0 0 0 0 0 0 0 0 0 0 0 0 0 0
0 0 0 0 0 0 0 0 0 0 0 0 0 0 0 0 0 0 0 0 0 0 0 0 0 0 0 0 0 0 0 0 0 0 0 0 0 0 0 0 0 0 0
0 0 0 0 0 0 0 0 0 0 0 0 0 0 0 0 0 0 0 0 0 0 0 0 0 0 0 0 0 0 0 0 0 0 0 0 0 0 0 0 0 0 0
0 0 0 0 0 0 0 0 0 0 0 0 0 0 0 0 0 0 0 0 0 0 0 0 0 0 0 0 0 0 0 0 0 0 0 -0 0 0 0 0 0 0 0
0 0 0 0 0 0 0 0 0 0 0 -0 -0 -0 0 0 0 0 0 0 0 0 0 0 0 0 0 0 0 0 0 0 0 0 0 -0 0 0 0 0 0 0 0
0 0 0 0 0 0 0 0 0 0 0 0 0 0 0 0 0 0 0 0 0 0 0 0 0 0 0 0 0 0 0 0 0 0 0 0 0 0 0 0 0 0 0
0 0 0 0 0 0 0 0 0 0 0 0 0 0 0 0 0 0 0 0 0 0 0 0 0 0 0 0 0 0 0 0 0 0 0 0 0 0 0 0 0 0 0
0 0 0 0 0 0 0 0 0 0 0 0 0 0 0 0 0 0 0 0 0 0 0 0 0 0 0 0 0 0 0 0 0 0 0 0 0 0 0 0 0 0 0
0 0 0 0 0 0 0 0 0 0 0 0 0 0 0 0 0 0 0 0 0 0 0 0 0 0 0 0 0 0 0 0 0 0 0 0 0 0 0 0 0 0 0
0 0 0 0 0 0 0 0 0 0 0 0 0 0 0 0 0 0 0 0 0 0 0 0 0 0 0 0 0 0 0 0 0 0 0 0 0 0 0 0 0 0 0
0 0 0 0 0 0 0 0 0 0 0 0 0 0 0 0 0 0 0 0 0 0 0 0 0 0 0 0 0 0 0 0 0 0 0 0 0 0 0 0 0 0 0
0 0 0 0 0 0 0 0 0 0 0 0 0 0 0 0 0 0 0 0 0 0 0 0 0 0 0 0 0 0 0 0 0 0 0 0 0 0 0 0 0 0 0
0 0 0 0 0 0 0 0 0 0 0 0 0 0 0 0 0 0 0 0 0 0 0 0 0 0 0 0 0 0 0 0 0 0 0 0 0 0 0 0 0 0 0
0 0 0 0 0 0 0 0 0 0 0 0 0 0 0 0 0 0 0 0 0 0 0 0 0 0 0 0 0 0 0 0 0 0 0 0 0 0 0 0 0 0 0
0 0 0 0 0 0 0 0 0 0 0 0 0 0 0 0 0 0 0 0 0 0 0 0 0 0 0 0 0 0 0 0 0 0 0 0 0 0 0 0 0 0 0
0 0 0 0 0 0 0 0 0 0 0 0 0 0 0 0 0 0 0 0 0 0 0 0 0 0 0 0 0 0 0 0 0 0 0 0 0 0 0 0 0 0 0
0 0 0 0 0 0 0 0 0 0 0 0 0 0 0 0 0 0 0 0 0 0 0 0 0 0 0 0 0 0 0 0 0 0 0 0 0 0 0 0 0 0 0
Wind_Speed
6 6 7 7 7 7 7 7 7 7 7 7 7 7 8 7 7 7 7 7 7 7 6 6 6 5 4 4 4 4 4 5 7 5 4 6 5 5 5 4 5 5 6
6 6 7 7 7 8 8 7 7 7 7 8 7 8 8 8 8 9 9 9 9 9 8 8 7 6 6 5 4 4 4 4 8 9 7 6 6 6 6 5 4 3 4
6 7 7 7 8 8 7 7 7 8 8 8 8 9 9 9 9 9 9 9 10 10 9 9 8 7 7 6 5 5 5 6 6 8 8 6 6 5 6 4 4 2 3
6 7 8 8 7 7 7 7 7 7 8 8 9 9 9 9 9 9 9 10 10 10 10 10 9 8 8 6 5 6 6 7 8 7 7 6 5 5 4 4 4 3 2
6 7 7 7 7 7 7 7 7 7 8 8 9 9 9 9 9 9 8 9 10 10 10 11 11 12 12 8 6 6 6 6 6 6 6 6 5 4 3 2 2 3 3
6 7 7 7 7 7 7 7 7 8 8 9 9 10 10 9 10 11 8 9 10 10 10 10 10 11 12 13 13 12 8 5 5 5 5 5 5 4 2 1 2 2 2
6 7 7 7 7 7 7 8 8 8 9 9 9 10 10 10 10 10 9 8 10 9 9 8 8 9 8 10 10 11 12 11 7 3 5 5 5 4 2 2 1 1 2
6 6 7 7 7 7 7 8 8 7 7 8 8 9 9 9 9 8 6 9 10 10 9 9 9 9 9 7 8 9 9 8 6 5 5 4 4 3 1 0 1 2 3
6 6 6 6 7 7 7 7 7 7 7 7 8 9 9 8 9 8 6 7 8 10 9 10 9 9 9 7 6 7 8 6 7 7 6 5 5 3 3 2 1 2 1
6 6 6 6 7 7 7 7 6 6 6 7 8 8 9 8 9 10 8 5 7 7 7 8 11 9 9 9 5 6 7 6 5 6 5 4 4 3 2 3 3 2 2
6 6 6 6 6 6 6 5 5 5 6 7 8 7 8 7 8 10 11 5 5 5 6 6 7 7 7 8 6 6 5 3 2 3 3 3 3 2 2 1 2 3 3
7 7 6 5 5 6 5 5 5 5 6 6 6 6 6 6 7 7 8 8 7 5 5 6 7 5 5 5 5 5 4 5 0 1 2 2 1 1 1 1 1 3 3
7 7 6 6 5 5 4 4 4 3 3 4 4 5 5 5 6 4 4 4 5 4 5 6 3 1 2 3 4 2 4 1 2 2 2 2 2 2 1 1 2 3 5
7 6 6 5 5 5 3 3 4 3 4 4 4 4 5 4 4 3 3 3 4 3 3 5 4 2 1 2 2 1 1 4 3 2 2 1 1 0 1 1 2 2 3
7 6 5 5 5 5 5 6 5 6 6 4 4 3 4 5 6 8 6 5 5 5 3 1 2 2 2 2 2 2 2 1 1 2 2 2 1 1 1 1 2 3 3
6 5 5 5 4 5 6 6 8 7 5 6 7 7 6 7 4 3 4 3 4 6 5 1 2 2 2 3 2 2 2 2 3 2 2 2 2 2 2 2 2 3 3
5 4 4 4 5 4 4 5 6 5 3 3 3 3 4 3 1 1 1 3 5 6 3 1 2 2 2 2 2 3 3 3 2 3 2 2 2 2 3 3 3 3 3
6 5 3 4 4 4 4 3 3 4 5 6 5 3 2 1 1 2 3 5 4 4 1 2 1 2 2 2 2 2 2 2 2 2 2 2 3 3 3 3 3 4 4
5 4 3 4 3 3 3 3 3 3 3 4 5 7 6 6 6 5 6 4 1 1 2 2 2 2 2 2 2 2 2 2 3 3 2 3 3 3 4 4 4 2 5
4 4 1 3 4 3 3 2 3 2 2 2 2 3 5 5 4 4 4 1 1 1 1 1 2 2 2 2 2 2 2 2 2 3 2 3 3 4 4 5 5 5 5
6 7 6 4 3 2 2 2 2 2 2 2 2 4 3 2 1 0 0 0 1 1 1 2 2 1 1 2 2 2 2 2 3 3 3 3 4 4 4 5 5 6 6
5 5 4 3 2 2 1 1 1 2 2 2 3 5 5 5 2 1 1 1 1 1 1 2 3 2 2 3 2 2 3 3 3 3 3 4 4 4 5 5 5 6 6
4 4 3 3 2 3 3 2 2 1 1 1 1 2 3 2 2 2 2 1 2 2 2 2 3 3 2 2 3 4 4 3 3 4 5 5 5 5 5 6 7 7 7
5 4 4 3 3 3 3 2 2 2 2 1 2 2 2 2 3 3 3 3 3 3 4 4 4 4 5 5 4 5 3 2 4 5 6 7 7 7 7 6 7 8 8
5 4 4 3 3 3 2 2 2 2 2 2 3 3 3 3 3 3 4 4 5 5 5 5 5 5 6 7 7 5 2 2 3 6 7 7 8 9 9 9 8 9 9
6 5 4 4 3 3 3 3 3 3 3 3 3 3 4 4 4 4 4 4 5 5 6 6 7 8 8 8 8 5 5 6 7 7 8 8 9 9 9 9 11 10 10
Wind_Direction
57 65 66 62 58 58 54 51 50 48 45 46 45 48 50 53 55 60 64 65 68 65 63 68 66 66 76 85 96 104 111 122 125 122 128 139 148 143 139 150 156 170 151
63 67 65 64 62 60 57 53 54 53 52 53 53 56 58 57 57 60 63 63 65 65 63 67 67 70 74 78 92 104 110 120 133 132 136 143 145 144 146 166 159 163 148
71 77 73 68 66 64 61 56 56 57 56 57 58 60 61 61 61 62 65 65 63 61 58 61 65 72 75 76 87 101 111 118 124 131 133 135 144 151 161 165 153 163 174
75 76 75 70 67 65 61 58 58 59 61 60 60 62 62 63 63 65 69 68 66 62 58 58 58 62 68 79 89 100 112 121 127 130 133 140 143 150 168 162 160 170 177
88 85 80 78 75 70 66 64 63 63 66 66 67 65 61 59 52 54 68 73 73 70 66 63 63 61 54 52 69 88 109 121 129 132 137 141 139 152 159 161 156 175 168
90 87 83 79 76 74 75 74 69 68 67 66 66 68 64 57 38 35 44 68 69 71 72 73 77 72 71 66 62 60 61 92 114 128 130 125 125 127 114 164 173 193 163
94 91 88 84 80 76 76 76 73 70 72 70 68 69 69 57 41 40 38 63 68 66 65 64 68 69 72 83 86 86 71 59 57 73 102 105 120 118 141 160 107 345 24
100 96 92 90 91 86 79 76 73 70 70 71 73 74 74 60 39 39 38 71 71 69 67 66 67 62 48 50 82 84 82 70 56 70 82 83 85 86 83 53 157 201 202
92 89 90 91 93 89 84 80 80 80 76 75 73 76 78 66 33 20 10 85 81 74 67 58 58 66 32 12 78 90 91 95 89 73 65 70 60 36 340 274 235 251 203
96 92 89 87 89 87 84 83 84 84 85 84 77 73 73 66 37 19 359 77 84 88 87 80 61 46 26 11 63 83 88 87 97 116 122 153 160 154 214 282 313 316 322
104 102 93 91 94 91 90 92 96 93 89 88 89 83 75 66 61 33 13 39 65 76 82 80 70 43 35 23 23 57 49 3 104 127 135 139 149 160 180 188 332 322 333
111 110 106 103 101 101 99 96 95 106 114 108 103 99 92 81 60 53 38 30 11 59 60 64 73 51 47 35 43 41 330 292 236 105 100 89 85 71 64 5 331 315 302
115 111 106 101 95 101 109 114 117 116 108 107 108 104 102 102 108 106 81 51 21 41 60 62 59 55 194 120 86 324 289 301 53 64 62 58 50 40 319 240 227 239 251
117 115 114 109 108 102 96 94 92 86 91 99 98 97 100 101 83 86 113 131 156 142 116 137 178 224 217 97 166 202 28 31 6 22 29 23 3 317 289 316 295 279 276
118 117 116 112 106 104 83 49 45 57 33 21 53 74 77 82 52 18 359 20 14 27 337 175 152 134 114 76 67 55 45 79 19 358 342 325 322 323 327 319 313 306 304
130 125 120 120 120 122 121 113 60 55 63 47 26 16 66 67 58 25 19 6 341 324 306 28 51 38 30 36 36 47 50 30 8 346 333 329 336 333 329 321 310 311 312
121 120 119 117 120 119 122 126 128 119 101 85 70 44 42 51 32 352 321 294 282 285 274 34 39 28 19 16 16 20 28 30 350 328 334 329 325 327 320 317 321 319 314
131 125 132 121 112 114 118 123 126 136 144 142 147 160 173 196 236 255 265 267 232 224 323 37 31 14 5 358 0 6 5 355 341 338 336 327 324 320 315 314 317 327 321
143 132 130 121 134 129 132 133 120 115 116 124 137 150 182 201 212 237 256 265 339 27 34 33 16 5 3 354 346 345 335 333 347 328 325 323 319 313 313 313 312 317 293
130 89 167 159 151 148 150 142 129 132 133 124 128 129 158 198 200 181 208 257 320 13 10 8 13 360 345 328 318 308 295 295 296 291 315 311 304 302 304 302 304 304 299
151 147 189 203 158 144 138 133 134 153 144 137 110 81 0 279 240 184 243 252 320 343 347 331 312 291 290 289 306 324 316 309 309 310 310 306 304 302 300 295 294 295 299
164 160 170 162 153 153 133 177 175 163 155 156 145 149 186 249 257 258 257 261 278 279 285 292 299 315 328 316 316 290 285 290 302 307 305 303 294 290 291 294 299 305 303
185 172 167 164 167 154 210 215 200 196 190 193 203 184 193 229 252 255 258 258 256 259 263 259 270 280 288 279 282 286 293 304 313 318 304 296 294 291 288 290 293 294 296
187 191 186 172 184 192 197 199 202 216 223 218 237 250 253 248 260 264 262 256 253 251 252 256 265 274 273 266 260 256 260 295 298 285 283 288 291 292 292 291 289 294 296
197 197 198 194 200 202 204 221 224 224 231 238 244 250 255 259 259 255 251 249 250 251 253 254 254 255 256 256 260 266 132 170 245 284 277 269 274 279 282 285 286 289 290
200 201 210 212 212 226 233 239 240 243 243 244 248 253 261 263 263 264 260 255 255 252 253 254 252 252 253 251 249 232 189 201 214 232 262 269 270 272 278 280 282 281 282